GAD MUNICIPALIDAD DE AMBATO;;;;;;;
Reporte Solmaforo desde 01/03/2023 hasta 31/03/2023;;;;;;;
C�digo;Fecha;IUV;;IUV Completo;;;
2715397;20/03/2023 11:40:33;9;;8,912;;;
2715399;20/03/2023 11:41:33;9;;8,764;;;
2715401;20/03/2023 11:42:33;9;;8,794;;;
2715403;20/03/2023 11:43:33;9;;8,6292;;;
2715405;20/03/2023 11:44:33;8;;8,4588;;;
2715407;20/03/2023 11:45:33;9;;8,5548;;;
2715410;20/03/2023 11:47:33;8;;7,6708;;;
2715412;20/03/2023 11:48:33;7;;7,0516;;;
2715414;20/03/2023 11:49:33;7;;6,8924;;;
2715416;20/03/2023 11:50:33;7;;7,454;;;
2715418;20/03/2023 11:51:33;8;;8,082;;;
2715420;20/03/2023 11:52:33;8;;8,3984;;;
2715423;20/03/2023 11:54:33;9;;8,5748;;;
2715425;20/03/2023 11:55:33;9;;8,5072;;;
2715427;20/03/2023 11:56:33;8;;8,4996;;;
2715429;20/03/2023 11:57:33;8;;8,4932;;;
2715431;20/03/2023 11:58:33;8;;8,4024;;;
2715433;20/03/2023 11:59:33;8;;8,3712;;;
2715436;20/03/2023 12:01:33;8;;8,1944;;;
2715438;20/03/2023 12:02:33;8;;8,2356;;;
2715440;20/03/2023 12:03:33;8;;8,3308;;;
2715442;20/03/2023 12:04:33;9;;8,5704;;;
2715444;20/03/2023 12:05:33;8;;8,3672;;;
2715446;20/03/2023 12:06:33;8;;7,9184;;;
2715449;20/03/2023 12:08:33;8;;8,4088;;;
2715451;20/03/2023 12:09:33;8;;8,334;;;
2715453;20/03/2023 12:10:33;8;;7,5532;;;
2715455;20/03/2023 12:11:33;7;;6,814;;;
2715457;20/03/2023 12:12:33;7;;6,6508;;;
2715459;20/03/2023 12:13:33;7;;7,12;;;
2715462;20/03/2023 12:15:33;8;;8,2216;;;
2715464;20/03/2023 12:16:33;8;;8,4008;;;
2715466;20/03/2023 12:17:33;9;;8,5756;;;
2715468;20/03/2023 12:18:33;9;;8,6284;;;
2715470;20/03/2023 12:19:33;8;;8,338;;;
2715472;20/03/2023 12:20:33;9;;8,6896;;;
2715475;20/03/2023 12:22:33;9;;8,54;;;
2715477;20/03/2023 12:23:33;9;;8,6368;;;
2715479;20/03/2023 12:24:33;9;;8,7496;;;
2715481;20/03/2023 12:25:33;9;;8,954;;;
2715483;20/03/2023 12:26:33;9;;9,1308;;;
2715485;20/03/2023 12:27:33;9;;9,2476;;;
2715488;20/03/2023 12:29:33;8;;8,2;;;
2715490;20/03/2023 12:30:33;9;;8,7216;;;
2715492;20/03/2023 12:31:33;8;;8,4704;;;
2715494;20/03/2023 12:32:33;8;;8,2556;;;
2715496;20/03/2023 12:33:33;8;;8,2908;;;
2715498;20/03/2023 12:34:33;9;;8,7048;;;
2715501;20/03/2023 12:36:33;9;;8,5364;;;
2715503;20/03/2023 12:37:33;8;;8,23;;;
2715505;20/03/2023 12:38:33;8;;8,1244;;;
2715507;20/03/2023 12:39:33;8;;7,7676;;;
2715509;20/03/2023 12:40:33;7;;7,3916;;;
2715511;20/03/2023 12:41:33;8;;7,9312;;;
2715514;20/03/2023 12:43:33;9;;8,6196;;;
2715516;20/03/2023 12:44:33;9;;8,6916;;;
2715518;20/03/2023 12:45:33;9;;8,6872;;;
2715520;20/03/2023 12:46:33;8;;8,4372;;;
2715522;20/03/2023 12:47:33;8;;8,17;;;
2715524;20/03/2023 12:48:33;8;;8,1308;;;
2715527;20/03/2023 12:50:33;5;;4,8408;;;
2715529;20/03/2023 12:51:33;4;;4,2552;;;
2715531;20/03/2023 12:52:33;3;;2,8764;;;
2715533;20/03/2023 12:53:33;3;;2,6968;;;
2715535;20/03/2023 12:54:33;2;;2,4516;;;
2715537;20/03/2023 12:55:33;2;;2,4316;;;
2715540;20/03/2023 12:57:33;3;;2,5136;;;
2715542;20/03/2023 12:58:33;2;;2,4644;;;
2715544;20/03/2023 12:59:33;3;;2,7556;;;
2715546;20/03/2023 13:00:33;3;;2,998;;;
2715548;20/03/2023 13:01:33;3;;3,0636;;;
2715550;20/03/2023 13:02:33;3;;2,6036;;;
2715553;20/03/2023 13:04:33;2;;2,322;;;
2715555;20/03/2023 13:05:33;2;;2,2508;;;
2715557;20/03/2023 13:06:33;2;;2,2708;;;
2715559;20/03/2023 13:07:33;2;;2,3064;;;
2715561;20/03/2023 13:08:33;2;;2,3808;;;
2715563;20/03/2023 13:09:33;2;;2,4928;;;
2715566;20/03/2023 13:11:33;3;;2,9144;;;
2715568;20/03/2023 13:12:33;3;;3,002;;;
2715570;20/03/2023 13:13:33;3;;2,7296;;;
2715572;20/03/2023 13:14:33;3;;2,73;;;
2715574;20/03/2023 13:15:33;3;;2,8172;;;
2715576;20/03/2023 13:16:33;3;;2,9888;;;
2715579;20/03/2023 13:18:33;4;;3,5136;;;
2715581;20/03/2023 13:19:33;5;;4,9744;;;
2715583;20/03/2023 13:20:33;6;;6,14;;;
2715585;20/03/2023 13:21:33;8;;8,0216;;;
2715587;20/03/2023 13:22:33;8;;8,346;;;
2715589;20/03/2023 13:23:33;8;;8,1808;;;
2715592;20/03/2023 13:25:33;5;;5,4148;;;
2715594;20/03/2023 13:26:33;8;;8,1996;;;
2715596;20/03/2023 13:27:33;8;;8,484;;;
2715598;20/03/2023 13:28:33;8;;8,0984;;;
2715600;20/03/2023 13:29:33;6;;6,4452;;;
2715602;20/03/2023 13:30:33;5;;4,6428;;;
2715605;20/03/2023 13:32:33;3;;2,7564;;;
2715607;20/03/2023 13:33:33;3;;2,6256;;;
2715609;20/03/2023 13:34:33;3;;2,6472;;;
2715611;20/03/2023 13:35:33;3;;2,5708;;;
2715613;20/03/2023 13:36:33;2;;2,4292;;;
2715615;20/03/2023 13:37:33;2;;2,3376;;;
2715618;20/03/2023 13:39:33;5;;4,5036;;;
2715620;20/03/2023 13:40:33;4;;4,188;;;
2715622;20/03/2023 13:41:33;3;;3,2588;;;
2715624;20/03/2023 13:42:33;2;;2,4192;;;
2715626;20/03/2023 13:43:33;2;;2,4044;;;
2715628;20/03/2023 13:44:33;3;;3,0448;;;
2715631;20/03/2023 13:46:33;3;;2,9804;;;
2715633;20/03/2023 13:47:33;3;;3,2956;;;
2715635;20/03/2023 13:48:33;4;;3,6484;;;
2715637;20/03/2023 13:49:33;3;;2,6556;;;
2715639;20/03/2023 13:50:33;3;;2,59;;;
2715641;20/03/2023 13:51:33;3;;2,6896;;;
2715644;20/03/2023 13:53:33;3;;3,2996;;;
2715646;20/03/2023 13:54:33;3;;3,332;;;
2715648;20/03/2023 13:55:33;3;;3,0576;;;
2715650;20/03/2023 13:56:33;3;;3,0568;;;
2715652;20/03/2023 13:57:33;3;;3,1236;;;
2715654;20/03/2023 13:58:33;3;;3,4984;;;
2715657;20/03/2023 14:00:33;4;;4,0256;;;
2715659;20/03/2023 14:01:33;4;;3,68;;;
2715661;20/03/2023 14:02:33;3;;3,2244;;;
2715663;20/03/2023 14:03:33;3;;2,922;;;
2715665;20/03/2023 14:04:33;3;;2,7168;;;
2715667;20/03/2023 14:05:33;3;;2,5444;;;
2715670;20/03/2023 14:07:33;2;;2,2328;;;
2715672;20/03/2023 14:08:33;2;;2,1496;;;
2715674;20/03/2023 14:09:33;2;;2,0724;;;
2715676;20/03/2023 14:10:33;2;;1,9824;;;
2715678;20/03/2023 14:11:33;2;;1,924;;;
2715680;20/03/2023 14:12:33;2;;1,9068;;;
2715683;20/03/2023 14:14:33;2;;1,8868;;;
2715685;20/03/2023 14:15:33;2;;1,862;;;
2715687;20/03/2023 14:16:33;2;;1,8164;;;
2715689;20/03/2023 14:17:33;2;;1,7676;;;
2715691;20/03/2023 14:18:33;2;;1,696;;;
2715693;20/03/2023 14:19:33;2;;1,6232;;;
2715696;20/03/2023 14:21:33;2;;1,5268;;;
2715698;20/03/2023 14:22:33;2;;1,546;;;
2715700;20/03/2023 14:23:33;2;;1,5812;;;
2715702;20/03/2023 14:24:33;2;;1,6148;;;
2715704;20/03/2023 14:25:33;2;;1,6596;;;
2715706;20/03/2023 14:26:33;2;;1,71;;;
2715709;20/03/2023 14:28:33;2;;1,8124;;;
2715711;20/03/2023 14:29:33;2;;1,8732;;;
2715713;20/03/2023 14:30:33;2;;1,9324;;;
2715715;20/03/2023 14:31:33;2;;1,9904;;;
2715717;20/03/2023 14:32:33;2;;2,0612;;;
2715719;20/03/2023 14:33:33;2;;2,1528;;;
2715722;20/03/2023 14:35:33;3;;3,4892;;;
2715724;20/03/2023 14:36:33;3;;2,7468;;;
2715726;20/03/2023 14:37:33;2;;2,4008;;;
2715728;20/03/2023 14:38:33;2;;2,3852;;;
2715730;20/03/2023 14:39:33;2;;2,2956;;;
2715732;20/03/2023 14:40:33;2;;2,2224;;;
2715735;20/03/2023 14:42:33;2;;2,022;;;
2715737;20/03/2023 14:43:33;2;;1,9176;;;
2715739;20/03/2023 14:44:33;2;;1,8312;;;
2715741;20/03/2023 14:45:33;2;;1,7712;;;
2715743;20/03/2023 14:46:33;2;;1,728;;;
2715745;20/03/2023 14:47:33;2;;1,7012;;;
2715748;20/03/2023 14:49:33;2;;1,6732;;;
2715750;20/03/2023 14:50:33;2;;1,6604;;;
2715752;20/03/2023 14:51:33;2;;1,6556;;;
2715754;20/03/2023 14:52:33;2;;1,6508;;;
2715756;20/03/2023 14:53:33;2;;1,644;;;
2715758;20/03/2023 14:54:33;2;;1,6332;;;
2715761;20/03/2023 14:56:33;2;;1,6212;;;
2715763;20/03/2023 14:57:33;2;;1,624;;;
2715765;20/03/2023 14:58:33;2;;1,6036;;;
2715767;20/03/2023 14:59:33;2;;1,572;;;
2715769;20/03/2023 15:00:33;2;;1,5476;;;
2715771;20/03/2023 15:01:33;2;;1,5328;;;
2715774;20/03/2023 15:03:33;2;;1,5248;;;
2715776;20/03/2023 15:04:33;2;;1,5256;;;
2715778;20/03/2023 15:05:33;2;;1,526;;;
2715780;20/03/2023 15:06:33;2;;1,5228;;;
2715782;20/03/2023 15:07:33;2;;1,5212;;;
2715784;20/03/2023 15:08:33;2;;1,5192;;;
2715787;20/03/2023 15:10:33;2;;1,5056;;;
2715789;20/03/2023 15:11:33;2;;1,514;;;
2715791;20/03/2023 15:12:33;2;;1,5148;;;
2715793;20/03/2023 15:13:33;2;;1,53;;;
2715795;20/03/2023 15:14:33;2;;1,5188;;;
2715797;20/03/2023 15:15:33;2;;1,5036;;;
2715800;20/03/2023 15:17:33;1;;1,49;;;
2715802;20/03/2023 15:18:33;1;;1,486;;;
2715804;20/03/2023 15:19:33;1;;1,4872;;;
2715806;20/03/2023 15:20:33;1;;1,4904;;;
2715808;20/03/2023 15:21:33;1;;1,4896;;;
2715810;20/03/2023 15:22:33;1;;1,4768;;;
2715813;20/03/2023 15:24:33;1;;1,4732;;;
2715815;20/03/2023 15:25:33;1;;1,4976;;;
2715817;20/03/2023 15:26:33;2;;1,5256;;;
2715819;20/03/2023 15:27:33;2;;1,5464;;;
2715821;20/03/2023 15:28:33;2;;1,5608;;;
2715823;20/03/2023 15:29:33;2;;1,5712;;;
2715826;20/03/2023 15:31:33;2;;1,592;;;
2715828;20/03/2023 15:32:33;2;;1,6052;;;
2715830;20/03/2023 15:33:33;2;;1,6256;;;
2715832;20/03/2023 15:34:33;2;;1,6512;;;
2715834;20/03/2023 15:35:33;2;;1,6792;;;
2715836;20/03/2023 15:36:33;2;;1,702;;;
2715839;20/03/2023 15:38:33;2;;1,7148;;;
2715841;20/03/2023 15:39:33;2;;1,7032;;;
2715843;20/03/2023 15:40:33;2;;1,6924;;;
2715845;20/03/2023 15:41:33;2;;1,6848;;;
2715847;20/03/2023 15:42:33;2;;1,6804;;;
2715849;20/03/2023 15:43:33;2;;1,7028;;;
2715852;20/03/2023 15:45:33;2;;1,728;;;
2715854;20/03/2023 15:46:33;2;;1,7252;;;
2715856;20/03/2023 15:47:33;2;;1,7248;;;
2715858;20/03/2023 15:48:33;2;;1,728;;;
2715860;20/03/2023 15:49:33;2;;1,7364;;;
2715862;20/03/2023 15:50:33;2;;1,7392;;;
2715865;20/03/2023 15:52:33;2;;1,7372;;;
2715867;20/03/2023 15:53:33;2;;1,7172;;;
2715869;20/03/2023 15:54:33;2;;1,694;;;
2715871;20/03/2023 15:55:33;2;;1,6748;;;
2715873;20/03/2023 15:56:33;2;;1,6572;;;
2715875;20/03/2023 15:57:33;2;;1,6432;;;
2715878;20/03/2023 15:59:33;2;;1,622;;;
2715880;20/03/2023 16:00:33;2;;1,6088;;;
2715882;20/03/2023 16:01:33;2;;1,598;;;
2715884;20/03/2023 16:02:33;2;;1,5888;;;
2715886;20/03/2023 16:03:33;2;;1,5792;;;
2715888;20/03/2023 16:04:33;2;;1,5676;;;
2715891;20/03/2023 16:06:33;2;;1,5556;;;
2715893;20/03/2023 16:07:33;2;;1,556;;;
2715895;20/03/2023 16:08:33;2;;1,5568;;;
2715897;20/03/2023 16:09:33;2;;1,5536;;;
2715899;20/03/2023 16:10:33;2;;1,552;;;
2715901;20/03/2023 16:11:33;2;;1,5556;;;
2715904;20/03/2023 16:13:33;2;;1,5676;;;
2715906;20/03/2023 16:14:33;2;;1,578;;;
2715908;20/03/2023 16:15:33;2;;1,5964;;;
2715910;20/03/2023 16:16:33;2;;1,6144;;;
2715912;20/03/2023 16:17:33;2;;1,6324;;;
2715914;20/03/2023 16:18:33;2;;1,6552;;;
2715917;20/03/2023 16:20:33;2;;1,7476;;;
2715919;20/03/2023 16:21:33;2;;1,7912;;;
2715921;20/03/2023 16:22:33;2;;1,804;;;
2715923;20/03/2023 16:23:33;2;;1,8284;;;
2715925;20/03/2023 16:24:33;2;;1,8408;;;
2715927;20/03/2023 16:25:33;2;;1,8604;;;
2715930;20/03/2023 16:27:33;2;;1,8324;;;
2715932;20/03/2023 16:28:33;2;;1,8068;;;
2715934;20/03/2023 16:29:33;2;;1,7968;;;
2715936;20/03/2023 16:30:33;2;;1,856;;;
2715938;20/03/2023 16:31:33;2;;1,944;;;
2715940;20/03/2023 16:32:33;2;;1,986;;;
2715943;20/03/2023 16:34:33;2;;2,0228;;;
2715945;20/03/2023 16:35:33;2;;2,0708;;;
2715947;20/03/2023 16:36:33;2;;2,1092;;;
2715949;20/03/2023 16:37:33;2;;2,1376;;;
2715951;20/03/2023 16:38:33;2;;2,1828;;;
2715953;20/03/2023 16:39:33;2;;2,1588;;;
2715956;20/03/2023 16:41:33;2;;2,1644;;;
2715958;20/03/2023 16:42:33;2;;2,1756;;;
2715960;20/03/2023 16:43:33;2;;2,2204;;;
2715962;20/03/2023 16:44:33;2;;2,1792;;;
2715964;20/03/2023 16:45:33;2;;2,1252;;;
2715966;20/03/2023 16:46:33;2;;2,0188;;;
2715969;20/03/2023 16:48:33;2;;1,956;;;
2715971;20/03/2023 16:49:33;2;;1,9252;;;
2715973;20/03/2023 16:50:33;2;;1,824;;;
2715975;20/03/2023 16:51:33;2;;1,7044;;;
2715977;20/03/2023 16:52:33;2;;1,5756;;;
2715979;20/03/2023 16:53:33;2;;1,5052;;;
2715982;20/03/2023 16:55:33;1;;1,4768;;;
2715984;20/03/2023 16:56:33;1;;1,41;;;
2715986;20/03/2023 16:57:33;1;;1,3452;;;
2715988;20/03/2023 16:58:33;1;;1,33;;;
2715990;20/03/2023 16:59:33;1;;1,29;;;
2715992;20/03/2023 17:00:33;1;;1,2668;;;
2715995;20/03/2023 17:02:33;1;;1,2332;;;
2715997;20/03/2023 17:03:33;1;;1,2156;;;
2715999;20/03/2023 17:04:33;1;;1,2032;;;
2716001;20/03/2023 17:05:33;1;;1,1656;;;
2716003;20/03/2023 17:06:33;1;;1,0676;;;
2716005;20/03/2023 17:07:33;1;;1,0564;;;
2716008;20/03/2023 17:09:33;1;;1,0512;;;
2716010;20/03/2023 17:10:33;1;;1,0152;;;
2716012;20/03/2023 17:11:33;1;;0,9872;;;
2716014;20/03/2023 17:12:33;1;;0,9644;;;
2716016;20/03/2023 17:13:33;1;;0,9384;;;
2716018;20/03/2023 17:14:33;1;;0,9144;;;
2716021;20/03/2023 17:16:33;1;;0,8736;;;
2716023;20/03/2023 17:17:33;1;;0,8524;;;
2716025;20/03/2023 17:18:33;1;;0,8284;;;
2716027;20/03/2023 17:19:33;1;;0,8044;;;
2716029;20/03/2023 17:20:33;1;;0,7836;;;
2716031;20/03/2023 17:21:33;1;;0,7488;;;
2716034;20/03/2023 17:23:33;1;;0,7092;;;
2716036;20/03/2023 17:24:33;1;;0,694;;;
2716038;20/03/2023 17:25:33;1;;0,686;;;
2716040;20/03/2023 17:26:33;1;;0,686;;;
2716042;20/03/2023 17:27:33;1;;0,6624;;;
2716044;20/03/2023 17:28:33;1;;0,6484;;;
2716046;20/03/2023 17:29:33;1;;0,642;;;
2716048;20/03/2023 17:30:33;1;;0,6412;;;
2716050;20/03/2023 17:31:33;1;;0,6324;;;
2716052;20/03/2023 17:32:33;1;;0,6176;;;
2716054;20/03/2023 17:33:33;1;;0,6028;;;
2716056;20/03/2023 17:34:33;1;;0,592;;;
2716058;20/03/2023 17:35:33;1;;0,5792;;;
2716060;20/03/2023 17:36:33;1;;0,5652;;;
2716062;20/03/2023 17:37:33;1;;0,5484;;;
2716064;20/03/2023 17:38:33;1;;0,5296;;;
2716066;20/03/2023 17:39:33;1;;0,5132;;;
2716068;20/03/2023 17:40:33;0;;0,4968;;;
2716070;20/03/2023 17:41:33;0;;0,4808;;;
2716072;20/03/2023 17:42:33;0;;0,4664;;;
2716074;20/03/2023 17:43:33;0;;0,4532;;;
2716076;20/03/2023 17:44:33;0;;0,4408;;;
2716078;20/03/2023 17:45:33;0;;0,4288;;;
2716080;20/03/2023 17:46:33;0;;0,4172;;;
2716082;20/03/2023 17:47:33;0;;0,4068;;;
2716084;20/03/2023 17:48:33;0;;0,3968;;;
2716086;20/03/2023 17:49:33;0;;0,3824;;;
2716088;20/03/2023 17:50:33;0;;0,3628;;;
2716090;20/03/2023 17:51:33;0;;0,342;;;
2716092;20/03/2023 17:52:33;0;;0,3224;;;
2716094;20/03/2023 17:53:33;0;;0,3044;;;
2716096;20/03/2023 17:54:33;0;;0,2868;;;
2716098;20/03/2023 17:55:33;0;;0,2696;;;
2716100;20/03/2023 17:56:33;0;;0,2532;;;
2716102;20/03/2023 17:57:33;0;;0,2388;;;
2716104;20/03/2023 17:58:33;0;;0,228;;;
2716106;20/03/2023 17:59:33;0;;0,2184;;;
2716108;20/03/2023 18:00:33;0;;0,2088;;;
2716110;20/03/2023 18:01:33;0;;0,1968;;;
2716112;20/03/2023 18:02:33;0;;0,1844;;;
2716114;20/03/2023 18:03:33;0;;0,1688;;;
2716116;20/03/2023 18:04:33;0;;0,1504;;;
2716118;20/03/2023 18:05:33;0;;0,136;;;
2716120;20/03/2023 18:06:33;0;;0,126;;;
2716122;20/03/2023 18:07:33;0;;0,118;;;
2716124;20/03/2023 18:08:33;0;;0,108;;;
2716126;20/03/2023 18:09:33;0;;0,0944;;;
2716128;20/03/2023 18:10:33;0;;0,0792;;;
2716129;20/03/2023 18:11:33;0;;0,066;;;
2716130;20/03/2023 18:12:33;0;;0,0556;;;
2716131;20/03/2023 18:13:33;0;;0,044;;;
2716132;20/03/2023 18:14:33;0;;0,0332;;;
2716133;20/03/2023 18:15:33;0;;0,0268;;;
2716134;20/03/2023 18:16:33;0;;0,0228;;;
2716135;20/03/2023 18:17:33;0;;0,02;;;
2716136;20/03/2023 18:18:33;0;;0,0172;;;
2716137;20/03/2023 18:19:33;0;;0,0152;;;
2716138;20/03/2023 18:20:33;0;;0,0128;;;
2716139;20/03/2023 18:21:33;0;;0,0108;;;
2716140;20/03/2023 18:22:33;0;;0,0088;;;
2716141;20/03/2023 18:23:33;0;;0,0072;;;
2716142;20/03/2023 18:24:33;0;;0,0064;;;
2716143;20/03/2023 18:25:33;0;;0,0052;;;
2716144;20/03/2023 18:26:33;0;;0,0044;;;
2716145;20/03/2023 18:27:33;0;;0,004;;;
2716146;20/03/2023 18:28:33;0;;0,004;;;
2716147;20/03/2023 18:29:33;0;;0,0032;;;
2716148;20/03/2023 18:30:33;0;;0,0024;;;
2716149;20/03/2023 18:31:33;0;;0,002;;;
2716150;20/03/2023 18:32:33;0;;0,0016;;;
2716151;20/03/2023 18:33:33;0;;0,0008;;;
2716152;20/03/2023 18:34:33;0;;0,0004;;;
2716153;20/03/2023 18:35:33;0;;0,0004;;;
2716154;20/03/2023 18:36:33;0;;0,0004;;;
2716155;20/03/2023 18:37:33;0;;0;;;
2716156;20/03/2023 18:38:33;0;;0;;;
2716157;20/03/2023 18:39:33;0;;0;;;
2716158;20/03/2023 18:40:33;0;;0;;;
2716159;20/03/2023 18:41:33;0;;0;;;
2716160;20/03/2023 18:42:33;0;;0;;;
2716161;20/03/2023 18:43:33;0;;0;;;
2716162;20/03/2023 18:44:33;0;;0;;;
2716163;20/03/2023 18:45:33;0;;0;;;
2716164;20/03/2023 18:46:33;0;;0;;;
2716165;20/03/2023 18:47:33;0;;0;;;
2716166;20/03/2023 18:48:33;0;;0;;;
2716167;20/03/2023 18:49:33;0;;0;;;
2716168;20/03/2023 18:50:33;0;;0;;;
2716169;20/03/2023 18:51:33;0;;0;;;
2716170;20/03/2023 18:52:33;0;;0;;;
2716171;20/03/2023 18:53:33;0;;0;;;
2716172;20/03/2023 18:54:33;0;;0;;;
2716173;20/03/2023 18:55:33;0;;0;;;
2716174;20/03/2023 18:56:33;0;;0;;;
2716175;20/03/2023 18:57:33;0;;0;;;
2716176;20/03/2023 18:58:33;0;;0;;;
2716177;20/03/2023 18:59:33;0;;0;;;
2716229;21/03/2023 05:01:32;0;;0;;;
2716231;21/03/2023 05:02:32;0;;0;;;
2716233;21/03/2023 05:03:32;0;;0;;;
2716235;21/03/2023 05:04:32;0;;0;;;
2716237;21/03/2023 05:05:32;0;;0;;;
2716239;21/03/2023 05:06:32;0;;0;;;
2716242;21/03/2023 05:08:32;0;;0;;;
2716244;21/03/2023 05:09:32;0;;0;;;
2716246;21/03/2023 05:10:32;0;;0;;;
2716248;21/03/2023 05:11:32;0;;0;;;
2716250;21/03/2023 05:12:32;0;;0;;;
2716252;21/03/2023 05:13:32;0;;0;;;
2716255;21/03/2023 05:15:32;0;;0;;;
2716257;21/03/2023 05:16:32;0;;0;;;
2716259;21/03/2023 05:17:32;0;;0;;;
2716261;21/03/2023 05:18:32;0;;0;;;
2716263;21/03/2023 05:19:32;0;;0;;;
2716265;21/03/2023 05:20:32;0;;0;;;
2716268;21/03/2023 05:22:32;0;;0;;;
2716270;21/03/2023 05:23:32;0;;0;;;
2716272;21/03/2023 05:24:32;0;;0;;;
2716274;21/03/2023 05:25:32;0;;0;;;
2716276;21/03/2023 05:26:32;0;;0;;;
2716278;21/03/2023 05:27:32;0;;0;;;
2716281;21/03/2023 05:29:32;0;;0;;;
2716283;21/03/2023 05:30:32;0;;0;;;
2716285;21/03/2023 05:31:32;0;;0;;;
2716287;21/03/2023 05:32:32;0;;0;;;
2716289;21/03/2023 05:33:32;0;;0;;;
2716291;21/03/2023 05:34:32;0;;0;;;
2716294;21/03/2023 05:36:32;0;;0;;;
2716296;21/03/2023 05:37:32;0;;0;;;
2716298;21/03/2023 05:38:32;0;;0;;;
2716300;21/03/2023 05:39:32;0;;0;;;
2716302;21/03/2023 05:40:32;0;;0;;;
2716304;21/03/2023 05:41:32;0;;0;;;
2716307;21/03/2023 05:43:32;0;;0;;;
2716309;21/03/2023 05:44:32;0;;0;;;
2716311;21/03/2023 05:45:33;0;;0;;;
2716313;21/03/2023 05:46:32;0;;0;;;
2716315;21/03/2023 05:47:32;0;;0;;;
2716317;21/03/2023 05:48:32;0;;0;;;
2716320;21/03/2023 05:50:32;0;;0;;;
2716322;21/03/2023 05:51:32;0;;0;;;
2716324;21/03/2023 05:52:32;0;;0;;;
2716326;21/03/2023 05:53:32;0;;0;;;
2716328;21/03/2023 05:54:32;0;;0;;;
2716330;21/03/2023 05:55:32;0;;0;;;
2716333;21/03/2023 05:57:32;0;;0;;;
2716335;21/03/2023 05:58:32;0;;0;;;
2716337;21/03/2023 05:59:32;0;;0;;;
2716339;21/03/2023 06:00:32;0;;0;;;
2716341;21/03/2023 06:01:32;0;;0;;;
2716343;21/03/2023 06:02:32;0;;0,0004;;;
2716346;21/03/2023 06:04:32;0;;0,0004;;;
2716348;21/03/2023 06:05:32;0;;0,0008;;;
2716350;21/03/2023 06:06:32;0;;0,0008;;;
2716352;21/03/2023 06:07:32;0;;0,0016;;;
2716354;21/03/2023 06:08:32;0;;0,002;;;
2716356;21/03/2023 06:09:32;0;;0,0028;;;
2716359;21/03/2023 06:11:32;0;;0,0044;;;
2716361;21/03/2023 06:12:32;0;;0,0056;;;
2716363;21/03/2023 06:13:32;0;;0,0072;;;
2716365;21/03/2023 06:14:32;0;;0,0088;;;
2716367;21/03/2023 06:15:32;0;;0,01;;;
2716369;21/03/2023 06:16:32;0;;0,012;;;
2716372;21/03/2023 06:18:32;0;;0,0156;;;
2716374;21/03/2023 06:19:32;0;;0,0176;;;
2716376;21/03/2023 06:20:32;0;;0,0192;;;
2716378;21/03/2023 06:21:32;0;;0,022;;;
2716380;21/03/2023 06:22:32;0;;0,0252;;;
2716382;21/03/2023 06:23:32;0;;0,0288;;;
2716385;21/03/2023 06:25:32;0;;0,0372;;;
2716387;21/03/2023 06:26:32;0;;0,0424;;;
2716389;21/03/2023 06:27:32;0;;0,0476;;;
2716391;21/03/2023 06:28:32;0;;0,0528;;;
2716393;21/03/2023 06:29:32;0;;0,0584;;;
2716395;21/03/2023 06:30:32;0;;0,0644;;;
2716398;21/03/2023 06:32:32;0;;0,0756;;;
2716400;21/03/2023 06:33:32;0;;0,082;;;
2716402;21/03/2023 06:34:32;0;;0,0884;;;
2716404;21/03/2023 06:35:32;0;;0,0948;;;
2716406;21/03/2023 06:36:32;0;;0,1012;;;
2716408;21/03/2023 06:37:32;0;;0,1076;;;
2716411;21/03/2023 06:39:32;0;;0,1204;;;
2716413;21/03/2023 06:40:32;0;;0,126;;;
2716415;21/03/2023 06:41:32;0;;0,1308;;;
2716417;21/03/2023 06:42:32;0;;0,1356;;;
2716419;21/03/2023 06:43:32;0;;0,1396;;;
2716421;21/03/2023 06:44:32;0;;0,144;;;
2716424;21/03/2023 06:46:32;0;;0,154;;;
2716426;21/03/2023 06:47:32;0;;0,1596;;;
2716428;21/03/2023 06:48:32;0;;0,1656;;;
2716430;21/03/2023 06:49:32;0;;0,1712;;;
2716432;21/03/2023 06:50:32;0;;0,1768;;;
2716434;21/03/2023 06:51:32;0;;0,1828;;;
2716437;21/03/2023 06:53:32;0;;0,1952;;;
2716439;21/03/2023 06:54:32;0;;0,2012;;;
2716441;21/03/2023 06:55:32;0;;0,2076;;;
2716443;21/03/2023 06:56:32;0;;0,2132;;;
2716445;21/03/2023 06:57:32;0;;0,2196;;;
2716447;21/03/2023 06:58:32;0;;0,2248;;;
2716450;21/03/2023 07:00:32;0;;0,2364;;;
2716452;21/03/2023 07:01:32;0;;0,2424;;;
2716454;21/03/2023 07:02:32;0;;0,2484;;;
2716456;21/03/2023 07:03:32;0;;0,254;;;
2716458;21/03/2023 07:04:32;0;;0,26;;;
2716460;21/03/2023 07:05:32;0;;0,266;;;
2716463;21/03/2023 07:07:32;0;;0,2776;;;
2716465;21/03/2023 07:08:32;0;;0,2832;;;
2716467;21/03/2023 07:09:32;0;;0,2888;;;
2716469;21/03/2023 07:10:32;0;;0,2948;;;
2716471;21/03/2023 07:11:32;0;;0,3004;;;
2716473;21/03/2023 07:12:32;0;;0,3064;;;
2716476;21/03/2023 07:14:32;0;;0,3172;;;
2716478;21/03/2023 07:15:32;0;;0,3228;;;
2716480;21/03/2023 07:16:32;0;;0,3284;;;
2716482;21/03/2023 07:17:32;0;;0,3372;;;
2716484;21/03/2023 07:18:32;0;;0,3464;;;
2716486;21/03/2023 07:19:32;0;;0,356;;;
2716489;21/03/2023 07:21:32;0;;0,3736;;;
2716491;21/03/2023 07:22:32;0;;0,3816;;;
2716493;21/03/2023 07:23:32;0;;0,3876;;;
2716495;21/03/2023 07:24:32;0;;0,3952;;;
2716497;21/03/2023 07:25:32;0;;0,4008;;;
2716499;21/03/2023 07:26:32;0;;0,406;;;
2716502;21/03/2023 07:28:32;0;;0,4172;;;
2716504;21/03/2023 07:29:32;0;;0,422;;;
2716506;21/03/2023 07:30:32;0;;0,4264;;;
2716508;21/03/2023 07:31:32;0;;0,4308;;;
2716510;21/03/2023 07:32:32;0;;0,436;;;
2716512;21/03/2023 07:33:32;0;;0,4428;;;
2716515;21/03/2023 07:35:32;0;;0,4584;;;
2716517;21/03/2023 07:36:32;0;;0,4668;;;
2716519;21/03/2023 07:37:32;0;;0,4756;;;
2716521;21/03/2023 07:38:32;0;;0,4864;;;
2716523;21/03/2023 07:39:32;0;;0,4948;;;
2716525;21/03/2023 07:40:32;1;;0,502;;;
2716528;21/03/2023 07:42:32;1;;0,5184;;;
2716530;21/03/2023 07:43:32;1;;0,5276;;;
2716532;21/03/2023 07:44:32;1;;0,5368;;;
2716534;21/03/2023 07:45:32;1;;0,5448;;;
2716536;21/03/2023 07:46:32;1;;0,5528;;;
2716538;21/03/2023 07:47:32;1;;0,5612;;;
2716541;21/03/2023 07:49:32;1;;0,5788;;;
2716543;21/03/2023 07:50:32;1;;0,5896;;;
2716545;21/03/2023 07:51:32;1;;0,6004;;;
2716547;21/03/2023 07:52:32;1;;0,6132;;;
2716549;21/03/2023 07:53:32;1;;0,6268;;;
2716551;21/03/2023 07:54:32;1;;0,6396;;;
2716554;21/03/2023 07:56:32;1;;0,6644;;;
2716556;21/03/2023 07:57:32;1;;0,6764;;;
2716558;21/03/2023 07:58:32;1;;0,688;;;
2716560;21/03/2023 07:59:32;1;;0,7012;;;
2716562;21/03/2023 08:00:32;1;;0,7116;;;
2716564;21/03/2023 08:01:32;1;;0,722;;;
2716566;21/03/2023 08:02:32;1;;0,7304;;;
2716568;21/03/2023 08:03:32;1;;0,7392;;;
2716570;21/03/2023 08:04:32;1;;0,7536;;;
2716572;21/03/2023 08:05:32;1;;0,7624;;;
2716574;21/03/2023 08:06:32;1;;0,7672;;;
2716576;21/03/2023 08:07:32;1;;0,7776;;;
2716578;21/03/2023 08:08:32;1;;0,7884;;;
2716580;21/03/2023 08:09:32;1;;0,7988;;;
2716582;21/03/2023 08:10:32;1;;0,8096;;;
2716584;21/03/2023 08:11:32;1;;0,8216;;;
2716586;21/03/2023 08:12:32;1;;0,8336;;;
2716588;21/03/2023 08:13:32;1;;0,844;;;
2716590;21/03/2023 08:14:32;1;;0,8532;;;
2716592;21/03/2023 08:15:32;1;;0,8624;;;
2716594;21/03/2023 08:16:32;1;;0,872;;;
2716596;21/03/2023 08:17:32;1;;0,8816;;;
2716598;21/03/2023 08:18:32;1;;0,8936;;;
2716600;21/03/2023 08:19:32;1;;0,9064;;;
2716602;21/03/2023 08:20:32;1;;0,918;;;
2716604;21/03/2023 08:21:32;1;;0,9292;;;
2716606;21/03/2023 08:22:32;1;;0,9404;;;
2716608;21/03/2023 08:23:32;1;;0,9504;;;
2716610;21/03/2023 08:24:32;1;;0,9612;;;
2716612;21/03/2023 08:25:32;1;;0,97;;;
2716614;21/03/2023 08:26:32;1;;0,9764;;;
2716616;21/03/2023 08:27:32;1;;0,9796;;;
2716618;21/03/2023 08:28:32;1;;0,9816;;;
2716620;21/03/2023 08:29:32;1;;0,9816;;;
2716622;21/03/2023 08:30:32;1;;0,9804;;;
2716624;21/03/2023 08:31:32;1;;0,9792;;;
2716626;21/03/2023 08:32:32;1;;0,9784;;;
2716628;21/03/2023 08:33:32;1;;0,978;;;
2716630;21/03/2023 08:34:32;1;;0,9772;;;